This demonstration page uses our WeatherBlox Daily Observations layout. Learn more.

Left ArrowRight Arrow

Hourly Observations for December 21, 2018

Temp ( °F °C ) Dew Point ( °F °C ) Humidity (%) Winds ( mph kmh ) Pressure ( in mb ) Visibility ( mi km ) Precip ( " mm )
12:53 am 00:53 Clear 28 -2.2 23 -5 81 81 WNW 7 11 30.00 1016 10 16 0.00 0.00
1:53 am 01:53 Clear 28 -2.2 23 -5 81 81 WNW 7 11 29.99 1016 10 16 0.00 0.00
2:53 am 02:53 Clear 28 -2.2 23 -5 81 81 WNW 7 11 29.98 1015 10 16 0.00 0.00
3:53 am 03:53 Clear 28 -2.2 22 -5.6 78 78 W 3 6 29.95 1014 10 16 0.00 0.00
4:53 am 04:53 Clear 28 -2.2 22 -5.6 78 78 W 6 9 29.94 1014 10 16 0.00 0.00
5:53 am 05:53 Clear 26 -3.3 20 -6.7 78 78 WSW 5 7 29.93 1014 10 16 0.00 0.00
6:53 am 06:53 Clear 25 -3.9 20 -6.7 81 81 W 6 9 29.93 1013 10 16 0.00 0.00
7:53 am 07:53 Clear 27 -2.8 21 -6.1 78 78 W 3 6 29.92 1013 10 16 0.00 0.00
8:53 am 08:53 Sunny 29 -1.7 22 -5.6 75 75 Calm 29.92 1013 10 16 0.00 0.00
9:53 am 09:53 Sunny 32 0 24 -4.4 73 73 SSE 6 9 29.91 1013 10 16 0.00 0.00
10:53 am 10:53 Sunny 38 3.3 28 -2.2 68 68 S 7 11 29.88 1012 10 16 0.00 0.00
11:53 am 11:53 Sunny 44 6.7 28 -2.2 53 53 S 12 19 29.82 1010 10 16 0.00 0.00
12:53 pm 12:53 Sunny 46 7.8 25 -3.9 44 44 SSW 14 22 29.78 1008 10 16 0.00 0.00
1:53 pm 13:53 Sunny 47 8.3 26 -3.3 44 44 S 14 22 29.73 1007 10 16 0.00 0.00
2:53 pm 14:53 Sunny 49 9.4 24 -4.4 38 38 S 12 19 29.71 1006 10 16 0.00 0.00
3:53 pm 15:53 Sunny 47 8.3 26 -3.3 44 44 S 9 15 29.71 1006 10 16 0.00 0.00
4:53 pm 16:53 Sunny 44 6.7 27 -2.8 51 51 S 9 15 29.71 1006 10 16 0.00 0.00
5:53 pm 17:53 Clear 41 5 27 -2.8 57 57 S 8 13 29.71 1006 10 16 0.00 0.00
6:53 pm 18:53 Clear 39 3.9 26 -3.3 60 60 SSW 9 15 29.72 1006 10 16 0.00 0.00
7:53 pm 19:53 Clear 38 3.3 27 -2.8 65 65 VRB 3 6 29.75 1007 10 16 0.00 0.00
8:53 pm 20:53 Clear 35 1.7 27 -2.8 72 72 W 6 9 29.77 1008 10 16 0.00 0.00
9:53 pm 21:53 Clear 34 1.1 27 -2.8 76 76 WNW 8 13 29.78 1008 10 16 0.00 0.00
10:53 pm 22:53 Clear 34 1.1 27 -2.8 76 76 NW 9 15 29.79 1009 10 16 0.00 0.00
11:53 pm 23:53 Clear 36 2.2 29 -1.7 76 76 NW 13 20 29.80 1009 10 16 0.00 0.00

Powered by AerisWeather